Skip Page Navigation
NASA JPL Caltech
NASA Logo - Jet Propulsion Laboratory + View the NASA Portal
+ Center for Near-Earth Object Studies
JPL Home Earth Solar System Stars & Galaxies Technology
JPL Solar System Dynamics
BODIES ORBITS EPHEMERIDES TOOLS PHYSICAL DATA DISCOVERY FAQ SITE MAP
JPL Small-Body Database Browser
Search: [ help ]  
101882 (1999 NK36)
Classification: Main-belt Asteroid          SPK-ID: 2101882
Ephemeris | Orbit Diagram | Orbital Elements | Mission Design | Physical Parameters | Discovery Circumstances ]

[ show orbit diagram ]
Orbital Elements at Epoch 2459000.5 (2020-May-31.0) TDB
Reference: JPL 23 (heliocentric ecliptic J2000)
 Element Value Uncertainty (1-sigma)   Units 
e .1863195145396761 4.0733e-08  
a 2.188333971280036 9.4538e-09 au
q 1.780604648100458 8.9749e-08 au
i 7.520209398454401 5.8597e-06 deg
node 101.7811554291403 3.5222e-05 deg
peri 208.5898943194814 3.8961e-05 deg
M 155.4918933571136 1.7413e-05 deg
tp 2458489.790329621105
(2019-Jan-06.29032962)
5.6026e-05 TDB
period 1182.4120046834
3.24
7.6622e-06
2.098e-08
d
yr
n .3044624027615425 1.973e-09 deg/d
Q 2.596063294459614 1.1215e-08 au
  Orbit Determination Parameters
   # obs. used (total)      695  
   data-arc span      7542 days (20.65 yr)  
   first obs. used      1999-06-22  
   last obs. used      2020-02-14  
   planetary ephem.      DE431  
   SB-pert. ephem.      SB431-N16  
   condition code      0  
   norm. resid. RMS      .54542  
   source      ORB  
   producer      Otto Matic  
   solution date      2020-Nov-12 19:58:01  

Additional Information
 Earth MOID = .769869 au 
 Jupiter MOID = 2.65964 au 
 T_jup = 3.641 
[ show covariance matrix ]

Ephemeris | Orbit Diagram | Orbital Elements | Mission Design | Physical Parameters | Discovery Circumstances ]

Physical Parameter Table
Parameter Symbol Value Units Sigma Reference Notes
absolute magnitude H 16.0   n/a MPO439696  

101882 (1999 NK36)          Discovered 1999-Jul-14 by LINEAR at Socorro
Reference: 20051019/Numbers.arcLast Updated: 2005-10-26

Alternate Designations
 1999 NK36 = 2001 BG55 
Ephemeris | Orbit Diagram | Orbital Elements | Mission Design | Physical Parameters | Discovery Circumstances ]
ABOUT SSD CREDITS/AWARDS PRIVACY/COPYRIGHT GLOSSARY LINKS
FirstGov 2020-Dec-05 01:07 UT
(server date/time)  
NASA Home Page
Site Manager:   Ryan S. Park
Webmaster  Alan B. Chamberlin